Flag for U.S.A. Weather past 2 weeks in St. Croix Falls, Wisconsin, U.S.A.

Now
65 °F

Mostly cloudy.


Feels Like: 65 °F
Forecast: 55 / 68 °F
Wind: 14 mph from Southwest

Location: L O Simenstad Municipal Airport

Current Time: May 25, 2015 at 3:16:17 PM

Latest Report: May 25, 2015 at 2:55 PM


Visibility: 10 mi

Pressure: 29.75 "Hg

Humidity: 86%

Dew point: 61 °F

Location of St. Croix FallsLocation

Historic Weather in St. Croix Falls — Graph

°F

St. Croix Falls temperature yesterday

Maximum temperature yesterday: 68 °F (at 11:35 AM)
Minimum temperature yesterday: 55 °F (at 5:55 AM)
Average temperature yesterday: 60 °F

Past Weeks' High & Low Weather Summary

 TemperatureHumidityPressure
High76 °F (May 16, 5:15 PM)100% (May 10, 7:15 PM)30.46 "Hg (May 10, 7:15 PM)
Low32 °F (May 20, 3:15 AM)21% (May 21, 4:15 PM)29.58 "Hg (May 17, 7:35 PM)
Average54 °F76%30.06 "Hg
* Reported May 10 2:15 PM — May 25 2:15 PM, St. Croix Falls, Weather by CustomWeather, © 2015

Note: Actual official high and low records may vary slightly from our data, if they occured in-between our weather recording intervals... More about our weather records

Advertising

St. Croix Falls weather history for previous 24 hours

 ConditionsComfort  
Time TempWeatherWind HumidityBarometerVisibility
2:15 PM
Mon, May 25
67 °FMore clouds than sun.13 mph81%29.74 "Hg10 mi
1:55 PM65 °FCloudy.15 mph85%29.74 "Hg10 mi
1:35 PM66 °FMostly cloudy.14 mph86%29.73 "Hg10 mi
1:15 PM65 °FMostly cloudy.14 mph90%29.73 "Hg10 mi
12:55 PM65 °FMostly cloudy.14 mph91%29.73 "Hg10 mi
12:35 PM65 °FMostly cloudy.14 mph93%29.73 "Hg10 mi
12:15 PM64 °FMostly cloudy.15 mph95%29.72 "Hg10 mi
11:55 AM66 °FCloudy.13 mph91%29.71 "Hg10 mi
11:15 AM64 °FMostly cloudy.8 mph100%29.70 "Hg10 mi
10:55 AM64 °FLow clouds.10 mph100%29.70 "Hg10 mi
10:35 AM62 °FLow clouds.6 mph100%29.70 "Hg7 mi
10:15 AM61 °FFog.8 mph100%29.71 "Hg5 mi
9:55 AM60 °FFog.8 mph100%29.71 "Hg5 mi
9:35 AM59 °FFog.6 mph100%29.69 "Hg4 mi
9:15 AM59 °FFog.3 mph100%29.71 "Hg3 mi
8:55 AM58 °FFog.3 mph100%29.70 "Hg2 mi
8:35 AM58 °FFog.No wind100%29.69 "Hg3 mi
8:15 AM58 °FFog.5 mph100%29.69 "Hg5 mi
7:55 AM58 °FLight rain. Low clouds.5 mph100%29.69 "Hg7 mi
7:35 AM57 °FLight rain. Low clouds.5 mph100%29.71 "Hg3 mi
7:15 AM57 °FFog.5 mph100%29.71 "Hg3 mi
6:55 AM57 °FLow clouds.6 mph100%29.70 "Hg7 mi
6:15 AM57 °FRain. Mostly cloudy.3 mph100%29.71 "Hg7 mi
5:55 AM57 °FDrizzle. Mostly cloudy.6 mph100%29.71 "Hg7 mi
5:15 AM57 °FHeavy rain. Low clouds.6 mph100%29.72 "Hg4 mi
4:55 AM57 °FDrizzle. Low clouds.3 mph100%29.73 "Hg5 mi
4:35 AM57 °FRain. Mostly cloudy.7 mph100%29.72 "Hg5 mi
4:15 AM57 °FRain. Low clouds.7 mph100%29.73 "Hg10 mi
3:55 AM57 °FMostly cloudy.7 mph100%29.73 "Hg10 mi
3:35 AM57 °FDrizzle. Mostly cloudy.8 mph100%29.74 "Hg10 mi
3:15 AM58 °FDrizzle. Mostly cloudy.7 mph100%29.75 "Hg10 mi
2:55 AM58 °FLow clouds.7 mph100%29.76 "Hg10 mi
2:15 AM58 °FDrizzle. Low clouds.9 mph100%29.76 "Hg10 mi
1:55 AM58 °FDrizzle. Low clouds.8 mph100%29.78 "Hg10 mi
1:35 AM58 °FRain. Low clouds.9 mph100%29.78 "Hg10 mi
1:15 AM58 °FDrizzle. Low clouds.9 mph100%29.79 "Hg10 mi
12:55 AM58 °FRain. Low clouds.9 mph100%29.80 "Hg10 mi
12:35 AM58 °FDrizzle. Low clouds.7 mph100%29.81 "Hg10 mi
12:15 AM58 °FDrizzle. Low clouds.8 mph100%29.82 "Hg7 mi
11:55 PM
Sun, May 24
58 °FDrizzle. Low clouds.8 mph100%29.83 "Hg5 mi
11:35 PM58 °FDrizzle. Low clouds.9 mph100%29.84 "Hg5 mi
11:15 PM58 °FDrizzle. Low clouds.8 mph100%29.85 "Hg5 mi
10:55 PM58 °FDrizzle. Low clouds.9 mph100%29.85 "Hg7 mi
10:15 PM58 °FDrizzle. Low clouds.9 mph100%29.87 "Hg5 mi
9:55 PM58 °FDrizzle. Low clouds.7 mph100%29.88 "Hg5 mi
9:35 PM58 °FDrizzle. Low clouds.9 mph100%29.89 "Hg5 mi
9:15 PM59 °FDrizzle. Mostly cloudy.7 mph100%29.89 "Hg7 mi
8:55 PM59 °FDrizzle. Low clouds.9 mph100%29.89 "Hg10 mi
8:15 PM59 °FDrizzle. Low clouds.6 mph100%29.91 "Hg7 mi
7:55 PM59 °FRain. Mostly cloudy.8 mph100%29.91 "Hg7 mi
7:35 PM59 °FLight rain. Cloudy.6 mph100%29.92 "Hg7 mi
7:15 PM59 °FLight rain. Cloudy.12 mph100%29.92 "Hg5 mi
6:55 PM59 °FLight rain. Mostly cloudy.9 mph100%29.93 "Hg7 mi
6:35 PM60 °FLight rain. Mostly cloudy.12 mph100%29.94 "Hg7 mi
6:15 PM60 °FRain. Mostly cloudy.10 mph100%29.95 "Hg10 mi
5:55 PM60 °FLight rain. Mostly cloudy.6 mph100%29.95 "Hg10 mi
5:35 PM60 °FLight rain. Mostly cloudy.6 mph100%29.96 "Hg7 mi
5:15 PM60 °FRain. More clouds than sun.7 mph100%29.96 "Hg7 mi
4:15 PM61 °FLight rain. Mostly cloudy.8 mph100%29.98 "Hg10 mi
3:55 PM60 °FRain. Mostly cloudy.6 mph100%29.99 "Hg10 mi
3:35 PM61 °FRain. More clouds than sun.8 mph100%29.99 "Hg10 mi
3:15 PM61 °FLight rain. Overcast.8 mph99%30.00 "Hg10 mi
Weather by CustomWeather, © 2015

See weather overviewHow to use our weather pages